Location: Morlupo
(42.1333°N, 12.5000°E)
Time: 16:27:42
(UTC+00:00)

Cosmos 1300 Rocket - Pass Details

Date: 18 September 2020
Orbit: 602 x 626 km, 82.5° (Epoch: 20 October)

Event Time Altitude Azimuth Distance (km) Brightness Sun altitude
Rises 18:14:53 0° 169° (S) 2,870 6.7 -12.0°
Reaches altitude 10° 18:17:10 10° 163° (SSE) 1,974 5.8 -12.5°
Maximum altitude 18:21:17 42° 92° (E) 887 3.9 -13.2°
Drops below altitude 10° 18:25:28 10° 22° (NNE) 2,002 6.1 -14.0°
Sets 18:27:48 0° 16° (NNE) 2,916 7.0 -14.4°
